Dewpoint
4 4 5 3 3 3 4 4 5 3 2 3 3 2 1 0 0 -1 -1 -2 -2 7 10 11 11 11 9 11 12 12 11 10 11 9 6 1 -3 -6 -7 -7 -7 -8 -9 -9
3 4 2 2 2 3 4 5 4 3 2 2 2 2 0 -0 0 -1 -1 -1 -2 6 11 11 11 10 9 10 10 12 11 10 11 11 9 5 2 -3 -7 -6 -6 -6 -7 -8
3 -1 1 3 3 4 4 4 4 4 3 1 2 2 1 -1 -0 -0 -1 -1 -1 0 10 11 11 10 10 10 10 8 9 11 11 11 9 7 3 2 -4 -5 -4 -4 -4 -6
3 2 3 3 4 3 5 2 3 4 4 4 1 5 1 0 -0 -1 -2 -2 -1 0 7 11 12 11 9 9 3 6 7 9 10 11 11 9 9 7 5 3 3 0 -1 -2
-2 2 3 4 3 2 3 1 1 1 2 3 2 2 2 0 1 -1 -2 -2 -2 -1 4 7 11 10 10 9 7 8 5 10 9 11 11 10 8 10 8 6 4 1 1 2
1 0 2 2 2 2 1 1 -0 1 3 5 2 3 2 0 -1 -2 -3 -3 -3 -2 0 7 8 8 10 9 8 1 4 8 11 11 10 11 9 9 9 6 5 2 3 6
-3 0 0 2 3 3 2 3 2 2 5 4 -2 2 2 -1 -2 -2 -2 -3 -2 -3 -2 3 9 10 9 7 5 3 8 9 11 11 10 10 11 10 9 8 7 6 5 7
-3 -3 2 2 1 2 3 3 2 2 1 2 2 4 2 -1 -2 -2 -3 -4 -3 -3 -1 2 4 9 10 10 10 9 8 10 10 11 11 10 11 10 10 10 9 6 6 8
-2 -1 0 2 1 1 3 4 0 3 2 4 2 0 -2 -3 -2 -3 -4 -5 -5 -4 -3 1 3 4 7 9 10 10 10 10 10 10 9 10 9 10 9 9 9 8 6 7
-6 -4 1 2 2 1 1 1 4 3 4 4 2 2 2 -2 -3 -3 -3 -4 -4 -5 -5 -3 2 7 7 8 8 7 9 9 9 8 8 9 9 7 10 9 9 9 7 7
-4 -3 -2 2 4 4 4 3 2 2 2 3 4 1 -1 -1 -3 -3 -4 -4 -4 -4 -4 -5 -3 -1 6 9 10 9 9 9 9 8 8 8 8 7 9 10 9 8 7 8
-3 -2 0 3 0 1 2 2 2 3 2 3 1 3 -2 -3 -3 -3 -4 -4 -5 -5 -6 -6 -4 -2 -2 4 9 10 11 9 8 9 9 8 7 6 10 10 10 9 7 8
-3 -1 -0 -1 -3 -1 3 3 1 0 1 3 3 1 -3 -3 -2 -3 -3 -4 -6 -6 -6 -6 -6 -6 -5 4 8 9 9 10 10 10 10 10 9 9 10 9 10 9 8 7
-1 -2 -1 -1 -4 -1 2 3 3 2 2 2 2 -1 -3 -3 -2 -3 -4 -5 -5 -5 -5 -5 -7 -5 -7 -1 8 10 10 10 10 10 10 10 9 10 9 9 9 10 10 8
-1 2 -2 -2 -3 -2 -2 -0 3 4 3 2 -0 0 -2 -3 -4 -4 -4 -4 -4 -5 -7 -6 -5 -5 -6 -6 -6 8 10 10 9 9 9 10 10 10 9 10 10 11 10 10
-1 2 1 -0 -3 -4 -3 -2 0 2 2 2 1 -0 -4 -3 -3 -3 -3 -4 -6 -7 -7 -6 -5 -5 -4 -6 -7 -6 -4 9 9 10 9 10 10 9 10 9 10 10 10 10
-3 -1 -0 2 -1 -2 -0 -3 -1 0 1 1 3 0 -2 -2 -4 -5 -6 -6 -7 -7 -7 -7 -7 -5 -5 -7 -7 -6 -6 -3 7 9 8 8 9 9 8 9 8 9 9 9
-3 -2 -1 1 -1 2 -3 -6 -5 -4 -5 -1 -2 -4 -4 -6 -7 -8 -8 -7 -8 -8 -7 -7 -7 -7 -6 -7 -7 -7 -5 -4 7 7 8 8 8 8 8 9 8 9 9 8
-5 -3 -1 0 2 -1 -3 -6 -4 -4 -4 -6 -5 -6 -7 -7 -8 -9 -9 -7 -7 -7 -7 -7 -8 -7 -6 -6 -6 -4 -2 1 5 6 7 8 7 8 8 8 8 8 7 5
-4 -3 -3 -1 3 2 -3 -6 -9 -8 -4 -9 -7 -7 -7 -8 -6 -7 -5 -5 -4 -4 -4 -4 -5 -4 -3 -3 -2 0 1 3 6 7 6 7 7 7 7 7 7 7 7 7
-2 -1 -0 -2 0 2 -1 -8 -9 -3 -6 -9 -9 -8 -7 -7 -7 -6 -5 -5 -5 -5 -4 -3 -4 -3 -2 -1 -1 -1 0 1 2 4 5 6 6 4 4 5 4 5 6 6
-2 0 -0 -1 1 2 -4 -9 -6 -8 -7 -7 -6 -6 -6 -5 -5 -5 -5 -5 -5 -6 -6 -6 -6 -5 -4 -3 -2 -1 -1 -1 -1 -1 0 2 3 4 4 4 4 4 4 5
1 -1 1 -0 -3 -4 -7 -6 -9 -8 -7 -6 -6 -6 -5 -5 -4 -4 -5 -5 -5 -5 -6 -6 -6 -7 -6 -6 -6 -6 -4 -3 -2 -2 -2 -2 -1 -0 0 2 3 3 3 3
-2 -3 1 2 -1 -4 -4 -5 -6 -7 -7 -6 -6 -5 -5 -5 -4 -4 -4 -4 -4 -5 -5 -5 -6 -5 -6 -5 -6 -6 -6 -6 -4 -3 -2 -2 -2 -2 -2 -1 -0 0 1 1
-7 -7 -2 0 -2 -3 -1 -3 -4 -4 -5 -5 -5 -5 -4 -4 -4 -4 -4 -5 -4 -4 -4 -5 -4 -4 -5 -5 -5 -5 -5 -6 -6 -5 -3 -2 -2 -2 -2 -2 -2 -2 -1 -1
-9 -7 -5 0 -1 -1 -0 -1 -2 -3 -2 -3 -4 -3 -3 -3 -2 -0 -0 0 -0 -1 -2 -3 -4 -4 -4 -4 -3 -3 -4 -4 -4 -4 -3 -3 -2 -2 -3 -3 -3 -2 -2 -2
Wind_Speed
3 1 7 9 7 3 2 4 9 6 8 5 7 13 16 21 15 19 26 20 17 21 27 31 30 31 24 28 35 37 34 33 34 33 31 29 27 24 22 20 18 16 15 13
1 8 9 5 4 5 5 6 8 8 4 4 10 19 19 18 13 21 28 25 20 21 22 27 37 38 36 28 31 33 33 37 36 35 33 30 27 25 22 21 20 18 16 14
7 4 4 6 5 5 4 5 5 8 6 5 7 9 6 6 9 20 22 27 25 24 26 26 32 36 33 34 36 31 26 40 39 33 36 32 29 27 26 25 24 21 18 15
7 4 6 7 5 6 4 6 7 6 4 3 5 8 6 8 9 6 13 20 27 26 28 32 36 41 38 35 21 31 28 40 40 38 38 36 31 31 28 26 23 23 20 17
7 4 5 6 7 7 7 3 3 2 3 5 1 0 7 4 8 7 7 19 23 27 31 35 40 39 42 42 31 37 25 37 47 43 38 38 37 32 29 28 28 26 23 20
9 2 4 8 5 7 3 1 4 3 1 4 2 3 6 4 5 5 3 4 7 22 30 35 40 40 43 43 43 32 31 41 50 45 43 41 38 35 32 31 31 29 25 22
3 5 3 5 4 1 3 2 4 3 2 6 1 0 10 9 8 6 9 24 17 10 23 34 36 41 48 42 40 43 43 46 46 50 49 45 41 39 35 33 32 30 29 25
3 7 8 6 7 7 6 5 5 5 3 4 4 6 6 6 8 10 14 18 16 11 12 25 34 33 36 39 42 45 48 48 46 50 48 44 38 38 35 36 37 34 29 28
6 6 2 4 4 7 5 6 4 2 1 2 3 7 9 5 4 5 12 11 8 8 10 15 25 33 36 37 39 43 53 51 48 47 50 50 46 45 44 43 39 37 32 31
3 4 2 2 3 1 5 6 4 1 4 5 4 5 6 4 3 4 8 9 11 13 14 10 15 26 33 36 36 36 40 50 53 45 46 48 51 45 50 46 43 40 35 31
3 5 3 4 7 11 5 4 2 4 4 4 2 5 6 7 4 6 6 5 6 13 18 21 11 14 25 32 34 38 40 44 51 51 43 43 50 51 50 53 48 44 38 33
8 4 5 11 2 5 4 8 7 5 6 3 3 7 4 8 6 6 3 4 10 15 26 21 13 7 13 23 32 36 38 39 41 46 58 54 53 58 54 52 48 44 39 36
8 5 3 6 3 3 6 6 6 4 3 7 6 5 2 1 2 5 6 13 24 29 31 26 19 10 8 13 23 31 37 40 39 40 46 56 60 58 51 50 48 47 43 41
15 6 10 16 6 5 5 6 15 10 4 5 12 9 8 8 8 9 15 23 24 30 27 24 20 15 9 10 13 25 32 33 35 36 40 46 54 53 56 54 51 44 46 45
5 10 12 15 10 5 6 6 13 18 23 10 9 15 21 17 14 19 15 34 32 23 23 22 20 18 15 10 9 17 24 26 30 31 33 37 43 49 52 53 49 47 48 46
6 5 16 25 21 14 19 12 14 21 21 20 12 15 13 7 12 21 23 24 26 31 24 21 22 21 15 14 12 12 16 20 24 28 31 32 35 34 41 51 52 58 50 47
12 5 8 18 10 7 8 26 11 6 6 16 16 14 17 8 9 12 24 24 25 25 23 16 16 17 14 12 11 10 11 14 17 20 25 28 29 29 33 26 36 30 39 41
18 17 9 13 5 20 13 10 20 20 20 18 18 5 9 14 13 20 27 21 26 22 15 11 8 7 7 9 10 9 8 12 13 16 16 19 24 24 24 26 23 28 30 37
23 18 10 10 11 8 7 4 9 7 10 14 14 13 15 9 4 18 10 9 10 8 7 7 7 8 8 8 8 6 4 5 9 11 13 13 16 19 20 24 25 29 28 20
22 24 16 11 9 9 7 17 9 6 12 9 12 12 7 7 2 3 3 4 5 3 2 1 1 0 2 2 1 3 5 6 6 7 7 7 8 9 11 13 15 18 18 26
8 15 19 17 17 6 6 5 16 7 7 8 17 13 12 6 4 8 10 11 11 11 9 7 9 8 7 7 8 8 8 7 6 6 7 8 8 8 8 8 9 9 12 17
13 8 11 14 14 21 7 2 9 7 4 9 9 11 12 16 17 16 16 16 15 15 14 11 13 14 13 11 9 9 8 8 7 5 5 6 6 7 8 10 10 11 13 14
4 8 4 7 10 2 7 3 8 10 14 12 16 19 25 25 23 20 20 18 17 17 16 13 14 13 13 13 12 9 10 7 4 3 2 3 3 5 8 10 11 13 13 14
10 11 2 3 3 4 6 10 6 10 16 17 21 24 25 27 23 22 20 20 17 18 17 14 13 16 16 15 13 13 11 9 6 2 0 1 1 1 3 5 7 10 11 13
6 15 13 3 2 10 21 18 22 24 23 26 25 24 25 25 23 23 21 24 20 19 17 16 16 16 17 14 14 13 13 12 10 7 3 1 1 1 2 2 4 5 7 9
20 9 5 3 13 9 12 19 24 29 24 25 27 25 23 23 20 16 17 14 12 14 14 14 15 15 16 14 12 11 11 10 10 7 4 2 1 1 1 1 2 4 6 8
Wind_Direction
190 149 226 220 207 233 261 260 257 255 265 282 255 275 279 278 266 266 269 261 250 232 231 222 208 201 211 218 224 209 204 201 206 205 205 207 207 205 206 205 206 206 205 207
27 236 226 215 195 222 250 269 276 287 269 258 287 285 278 263 248 234 247 248 238 230 218 224 211 214 227 213 219 206 209 206 208 211 209 209 209 210 211 209 210 210 210 212
198 215 85 166 212 215 234 229 262 264 317 253 303 282 280 282 245 250 246 245 237 228 212 208 204 205 206 203 208 226 232 211 209 214 210 210 208 213 212 211 213 213 212 214
242 253 213 217 234 175 269 224 255 285 341 295 47 297 290 272 281 269 253 232 233 227 220 211 207 212 208 196 202 205 265 221 214 214 213 209 211 214 216 215 214 215 216 217
253 182 199 203 215 160 227 181 245 289 279 315 329 27 272 319 299 280 248 235 237 234 222 219 216 216 217 213 213 205 251 234 217 216 217 210 214 218 220 217 221 220 219 218
249 252 219 208 194 180 139 136 38 22 174 266 267 161 283 241 223 306 293 241 260 241 228 226 221 216 208 210 215 226 207 215 219 221 218 216 218 218 220 223 227 223 223 223
299 214 248 153 132 141 131 168 327 355 216 235 217 206 252 272 260 230 276 290 300 274 233 226 225 220 218 222 214 215 210 221 222 223 220 218 217 219 219 227 231 230 222 222
174 309 185 188 178 177 166 175 169 232 211 274 168 238 250 214 255 278 296 282 278 294 266 229 226 227 225 224 221 218 220 224 229 228 222 224 226 224 222 223 230 233 231 229
180 271 193 184 160 148 185 195 161 130 222 292 247 288 290 281 262 238 326 355 0 353 322 246 232 226 230 230 227 227 226 225 221 222 229 223 222 227 221 220 223 230 231 229
227 292 215 178 139 138 165 165 124 96 209 243 278 274 240 289 112 319 338 352 17 37 28 352 244 234 229 232 235 233 233 229 228 231 226 220 220 233 230 226 222 228 232 228
147 164 247 131 208 182 167 187 160 130 168 188 271 261 215 238 237 205 270 284 355 9 6 358 340 246 237 236 234 239 237 235 229 228 227 226 223 229 233 230 226 224 230 229
214 187 235 210 231 197 203 180 159 152 213 215 155 271 274 240 256 267 245 266 312 328 329 337 328 314 251 237 232 232 237 240 238 234 231 230 232 231 233 235 233 231 230 228
185 222 276 303 4 6 212 206 196 118 106 191 160 254 319 14 298 255 296 309 310 318 316 311 316 305 291 255 238 231 235 236 242 240 238 231 233 237 236 240 240 234 231 229
307 233 223 241 217 142 188 207 207 196 181 182 221 261 275 279 262 282 300 307 306 308 305 302 294 294 293 280 248 232 232 235 240 240 241 237 232 235 241 242 241 239 232 230
243 254 254 256 253 223 245 188 190 209 226 213 219 221 254 246 269 281 296 303 307 304 309 299 281 286 278 277 280 246 241 240 235 237 242 244 244 240 238 242 245 247 241 234
317 285 261 264 262 240 252 241 199 211 224 236 261 258 255 233 264 283 285 290 294 299 306 300 281 259 281 275 278 266 257 244 242 241 240 242 241 242 244 246 249 244 237 240
274 277 291 260 251 210 237 233 196 192 193 205 230 230 261 267 242 259 273 280 282 294 298 294 299 265 262 267 273 276 265 255 245 246 246 247 246 245 242 243 247 244 240 238
247 246 257 285 169 235 248 178 213 217 225 214 238 215 228 247 276 285 283 278 284 286 278 271 277 265 255 264 278 282 267 252 234 243 243 246 247 248 245 233 233 248 257 250
220 230 239 249 251 267 287 198 148 163 238 215 217 237 244 267 318 287 306 279 278 275 260 259 258 259 261 265 272 271 247 241 221 229 239 243 239 239 239 238 231 223 220 243
224 217 205 234 253 235 237 215 191 117 244 202 184 213 210 141 177 257 85 88 74 71 97 135 112 311 226 260 221 151 144 156 169 181 201 214 220 225 229 232 237 243 235 228
234 213 214 221 240 271 245 278 147 171 224 172 183 178 170 171 174 136 130 113 96 88 83 93 102 96 99 97 99 107 111 125 143 169 179 183 188 205 226 240 250 254 248 245
251 228 202 212 230 237 202 112 183 213 100 143 153 169 144 132 130 128 120 110 107 99 90 80 92 86 81 86 93 96 92 89 98 125 170 188 198 208 223 230 238 243 244 245
245 210 228 209 222 139 160 159 246 176 165 162 151 144 138 132 126 123 114 108 97 95 86 75 76 82 75 72 73 74 64 60 68 84 112 131 176 215 227 230 230 240 243 240
336 18 237 233 24 49 61 86 140 157 146 142 142 138 135 123 121 114 110 103 89 85 84 80 73 74 70 58 54 51 42 40 40 36 242 226 207 234 251 241 235 233 237 238
356 303 321 92 46 85 50 78 108 105 114 117 119 121 120 121 113 110 99 92 87 81 78 75 73 67 64 55 45 38 27 10 1 354 338 257 222 251 274 257 244 234 233 236
340 301 310 348 321 79 86 85 104 101 97 107 113 109 110 116 109 103 86 85 90 93 91 81 74 68 62 57 54 46 35 23 14 9 8 24 75 173 201 216 237 248 241 238
Height
1491 1495 1495 1490 1490 1488 1489 1492 1490 1482 1474 1476 1470 1462 1453 1446 1445 1444 1441 1442 1443 1443 1445 1449 1453 1457 1461 1469 1474 1479 1484 1489 1495 1502 1506 1510 1512 1516 1520 1523 1526 1528 1530 1533
1493 1491 1481 1483 1485 1488 1489 1489 1485 1477 1471 1472 1466 1453 1444 1437 1433 1431 1433 1435 1437 1440 1443 1446 1450 1455 1458 1462 1469 1471 1477 1486 1491 1498 1502 1505 1511 1514 1518 1521 1524 1526 1528 1530
1490 1478 1476 1480 1482 1485 1485 1486 1483 1480 1473 1468 1467 1453 1440 1428 1425 1425 1426 1428 1432 1432 1437 1441 1445 1447 1451 1452 1458 1463 1472 1483 1488 1493 1497 1501 1506 1510 1513 1517 1520 1523 1525 1527
1485 1476 1477 1480 1480 1482 1485 1476 1477 1477 1478 1484 1469 1459 1444 1429 1425 1422 1421 1423 1425 1428 1431 1435 1438 1441 1446 1451 1449 1457 1472 1478 1484 1486 1490 1494 1499 1503 1508 1514 1517 1520 1522 1524
1476 1474 1476 1477 1475 1475 1478 1473 1474 1474 1480 1476 1472 1485 1444 1433 1426 1418 1416 1418 1420 1423 1425 1426 1431 1433 1438 1443 1444 1453 1464 1469 1478 1479 1483 1488 1493 1499 1505 1509 1512 1516 1517 1520
1471 1470 1470 1468 1468 1470 1470 1472 1478 1481 1478 1476 1468 1477 1451 1435 1423 1417 1413 1414 1417 1417 1420 1423 1426 1430 1432 1437 1444 1448 1451 1458 1468 1472 1477 1482 1487 1493 1498 1503 1507 1511 1513 1516
1472 1468 1461 1461 1467 1470 1471 1474 1501 1496 1477 1480 1487 1481 1442 1423 1417 1418 1415 1410 1413 1412 1413 1417 1421 1425 1429 1432 1437 1442 1448 1451 1456 1463 1471 1476 1482 1485 1490 1497 1502 1505 1507 1510
1478 1472 1460 1457 1457 1465 1472 1472 1493 1485 1505 1481 1470 1462 1433 1417 1413 1412 1412 1406 1408 1411 1412 1413 1416 1421 1424 1427 1431 1437 1442 1447 1450 1460 1466 1471 1475 1477 1481 1487 1495 1499 1502 1505
1473 1464 1452 1452 1452 1455 1471 1465 1465 1474 1482 1480 1465 1449 1425 1412 1408 1411 1410 1405 1406 1409 1409 1410 1413 1416 1419 1423 1427 1431 1436 1442 1447 1453 1458 1463 1467 1468 1472 1478 1485 1491 1495 1499
1451 1460 1450 1450 1451 1453 1456 1458 1468 1478 1478 1476 1464 1459 1440 1416 1410 1410 1410 1407 1406 1407 1408 1408 1409 1412 1416 1419 1423 1426 1430 1434 1439 1445 1448 1454 1457 1463 1468 1471 1475 1483 1487 1491
1453 1456 1454 1452 1450 1447 1453 1457 1457 1462 1468 1468 1467 1450 1421 1416 1413 1411 1410 1407 1406 1405 1406 1408 1407 1408 1411 1415 1418 1421 1424 1429 1432 1437 1441 1445 1450 1454 1459 1462 1466 1472 1480 1484
1449 1455 1458 1444 1436 1436 1438 1439 1446 1456 1459 1461 1470 1448 1411 1411 1411 1411 1407 1407 1406 1405 1404 1404 1404 1405 1406 1408 1412 1414 1416 1419 1422 1427 1434 1438 1444 1446 1450 1455 1459 1465 1472 1477
1441 1448 1459 1441 1442 1438 1437 1437 1434 1441 1446 1451 1455 1442 1409 1408 1409 1409 1409 1409 1407 1404 1401 1401 1400 1400 1401 1402 1405 1408 1408 1410 1416 1420 1423 1429 1434 1438 1443 1448 1453 1457 1463 1470
1440 1429 1424 1416 1423 1424 1432 1430 1426 1430 1444 1429 1424 1418 1409 1406 1406 1403 1404 1404 1404 1403 1400 1397 1395 1397 1397 1397 1397 1401 1403 1405 1410 1414 1417 1421 1425 1430 1436 1441 1444 1449 1455 1461
1435 1430 1422 1414 1416 1419 1414 1413 1420 1423 1414 1420 1412 1415 1400 1402 1402 1399 1400 1398 1397 1396 1396 1395 1394 1393 1393 1395 1396 1397 1398 1401 1404 1407 1410 1412 1417 1421 1425 1429 1433 1440 1439 1450
1439 1424 1421 1410 1406 1410 1407 1409 1409 1407 1405 1409 1409 1405 1397 1398 1400 1397 1396 1395 1392 1391 1390 1387 1387 1389 1391 1391 1392 1394 1394 1396 1399 1402 1404 1407 1410 1414 1416 1422 1423 1428 1434 1440
1440 1436 1426 1403 1402 1408 1414 1385 1403 1402 1401 1402 1406 1399 1389 1395 1395 1394 1391 1391 1388 1386 1386 1384 1382 1383 1386 1387 1388 1389 1390 1391 1393 1396 1398 1401 1403 1406 1408 1409 1415 1418 1425 1428
1429 1427 1429 1412 1401 1392 1369 1374 1379 1385 1382 1387 1384 1387 1387 1385 1386 1388 1386 1385 1384 1382 1382 1382 1381 1382 1383 1383 1383 1384 1386 1387 1389 1392 1394 1396 1399 1401 1404 1406 1410 1418 1421 1424
1412 1413 1417 1409 1383 1376 1371 1372 1375 1380 1378 1377 1380 1382 1379 1381 1384 1380 1380 1380 1380 1380 1379 1380 1379 1381 1382 1382 1382 1382 1383 1385 1387 1389 1392 1393 1396 1399 1402 1405 1406 1415 1414 1415
1391 1392 1395 1399 1375 1367 1356 1360 1362 1366 1369 1367 1369 1371 1374 1379 1386 1381 1379 1380 1380 1380 1380 1380 1379 1380 1381 1381 1381 1382 1383 1384 1386 1388 1390 1393 1395 1397 1400 1404 1407 1409 1404 1412
1378 1380 1382 1385 1384 1367 1356 1352 1356 1372 1362 1356 1361 1366 1369 1373 1375 1378 1379 1380 1381 1381 1382 1382 1379 1380 1382 1383 1382 1382 1383 1385 1386 1388 1390 1392 1394 1396 1399 1401 1404 1406 1409 1413
1372 1364 1363 1365 1368 1360 1348 1353 1357 1350 1352 1354 1358 1361 1364 1368 1373 1378 1380 1382 1382 1382 1383 1386 1381 1382 1384 1384 1384 1385 1386 1387 1388 1389 1391 1392 1394 1396 1398 1400 1401 1404 1408 1410
1354 1352 1347 1347 1338 1340 1340 1343 1344 1346 1350 1356 1359 1362 1363 1368 1374 1379 1380 1382 1384 1382 1383 1388 1385 1384 1386 1386 1386 1386 1388 1388 1389 1390 1392 1392 1394 1395 1397 1399 1400 1402 1404 1406
1365 1354 1346 1344 1342 1342 1344 1342 1346 1347 1350 1355 1360 1364 1368 1371 1378 1381 1383 1383 1386 1384 1385 1388 1389 1388 1386 1387 1387 1387 1389 1390 1390 1391 1391 1392 1393 1394 1396 1397 1399 1400 1403 1406
1398 1380 1362 1346 1350 1346 1348 1350 1351 1353 1357 1360 1365 1369 1372 1375 1381 1383 1387 1382 1386 1388 1388 1390 1390 1390 1389 1389 1388 1389 1389 1390 1391 1392 1392 1392 1393 1395 1396 1398 1399 1401 1403 1406
1405 1390 1379 1346 1354 1348 1355 1357 1355 1357 1365 1368 1369 1374 1378 1381 1384 1385 1386 1387 1389 1390 1392 1392 1393 1393 1392 1392 1391 1392 1392 1393 1393 1394 1394 1393 1393 1394 1396 1397 1398 1400 1402 1404